Starlink 4269

operational
NORAD ID: 52992 Int'l Des: 2022-076 Owner: SPXS Country: US Constellation: starlink
LEOCIRCULAR

Starlink 4269について

説明を読み込み中...

リアルタイム位置

3D地球を読み込み中...

次回通過

高度履歴

Altitude vs Time

uPlot chart will show altitude changes over time

軌道要素

1 52992U 22076G 26036.94203045 .00000204 00000-0 30910-4 0 9991
2 52992 53.2171 246.6511 0001510 99.7560 260.3603 15.08837041197910
Epoch: Feb 5, 2026 • Age: 22 hours

現在のステータス

高度 544.4 km
速度 7.59 km/s
衛星直下点 -15.20°S, 142.13°E
打ち上げ日 Jul 7, 2022
運用期間 3.5 years
タイプ internet

技術仕様

分類 Payload
質量 297.00 kg
乾燥質量 275.00 kg
総質量 297.00 kg
長さ 0.20 m
直径 2.80 m
スパン 9.00 m
形状 Box + pan
製造者 SPXS
バスタイプ Starlink
フェーズステータス In Orbit
所有者/国 SPXS/US

大規模コンステレーション

Loading constellations...